Location: Ottawa
(45.4170°N, 75.7000°W)
Time: 23:36:56
(UTC-05:00)

ISS - Visible Passes

Search period start: 11 December 2017 00:00
Search period end: 21 December 2017 00:00
Orbit: 403 x 407 km, 51.6° (Epoch: 12 December)

Date Brightness Start Highest point End Pass type
(mag) Time Alt. Az. Time Alt. Az. Time Alt. Az.
11 Dec -2.7 16:47:25 10° NW 16:50:20 29° N 16:53:16 10° ENE visible
11 Dec -3.3 18:23:52 10° WNW 18:26:30 53° NW 18:26:30 53° NW visible
12 Dec -3.6 17:31:41 10° NW 17:34:55 51° NNE 17:36:46 22° E visible
12 Dec -0.9 19:08:23 10° WNW 19:09:28 17° W 19:09:28 17° W visible
13 Dec -3.1 18:15:58 10° WNW 18:19:11 50° SW 18:19:56 40° S visible
14 Dec -3.8 17:23:41 10° WNW 17:26:59 87° SSW 17:30:16 10° ESE visible
14 Dec -0.8 19:01:19 10° WSW 19:03:01 14° SW 19:03:22 13° SW visible
15 Dec -1.4 18:08:18 10° W 18:11:00 23° SW 18:13:41 10° SSE visible
16 Dec -2.4 17:15:45 10° WNW 17:18:53 41° SW 17:21:59 10° SE visible
17 Dec -0.3 18:01:42 10° WSW 18:02:38 11° SW 18:03:34 10° SSW visible
18 Dec -0.7 17:08:09 10° W 17:10:36 19° SW 17:13:01 10° S visible
